Weather History for Morgantown, WV

Change the Weather History Date:

Sunday, January 21, 2007

  Actual Average Record
Temperature  
Mean Temperature 26 °F 31 °F  
Max Temperature 33 °F 39 °F 73 °F (1959)
Min Temperature 19 °F 24 °F -18 °F (1985)
Degree Days  
Heating Degree Days 39 34  
Month to date heating degree days 711  
Since 1 July heating degree days 2695  
Cooling Degree Days 0 0  
Month to date cooling degree days 0  
Year to date cooling degree days 0  
Moisture  
Dew Point 23 °F    
Average Humidity 82    
Maximum Humidity 93    
Minimum Humidity 58    
Precipitation  
Precipitation 0.22 in 0.09 in 0.50 in (1949)
Month to date precipitation 1.90  
Year to date precipitation 1.90  
Sea Level Pressure  
Sea Level Pressure 30.11 in    
Wind  
Wind Speed 2 mph (ESE)    
Max Wind Speed 9 mph    
Max Gust Speed -    
Visibility 3 miles    
Events Fog , Snow    
T = Trace of Precipitation, MM = Missing Value Source: NWS Daily Summary

Daily Weather History Graph

Daily Weather History Graph

Search for Another Location

Airport:

Trip Planner

Search our weather history database for the weather conditions in past years. The results will help you decide how hot, cold, wet, or windy it might be!

Date:

Astronomy

Jan. 21, 2007 Rise Set
Actual Time 7:35 AM EST 5:26 PM EST
Civil Twilight 7:06 AM EST 5:55 PM EST
Nautical Twilight 6:33 AM EST 6:28 PM EST
Astronomical Twilight 6:01 AM EST 7:00 PM EST
Moon 9:20 AM EST (1/21) 8:34 PM EST (1/21)
Length of Visible Light 10h 48m
Length of Day
9h 50m
Waxing Crescent, 8% of the Moon is Illuminated
Jan 21
Waxing Crescent
Jan 25
First Quarter
Feb 2
Full
Feb 10
Last Quarter
Feb 17
New

Hourly Weather History & Observations

Time (EST) Temp. Windchill Dew Point Humidity Pressure Visibility Wind Dir Wind Speed Gust Speed Precip Events Conditions
12:53 AM 19.0 °F - 12.0 °F 74% 30.42 in 10.0 mi Calm Calm - N/A   Clear
1:53 AM 19.9 °F - 12.0 °F 71% 30.40 in 10.0 mi Calm Calm - N/A   Clear
2:53 AM 21.0 °F 16.2 °F 12.0 °F 68% 30.40 in 10.0 mi Variable 3.5 mph - N/A   Clear
3:53 AM 19.9 °F - 10.9 °F 68% 30.39 in 10.0 mi Calm Calm - N/A   Clear
4:53 AM 19.9 °F 13.4 °F 12.0 °F 71% 30.37 in 10.0 mi Variable 4.6 mph - N/A   Clear
5:53 AM 19.9 °F 13.4 °F 14.0 °F 78% 30.36 in 10.0 mi NE 4.6 mph - N/A   Mostly Cloudy
6:53 AM 21.9 °F 15.7 °F 12.0 °F 66% 30.31 in 10.0 mi ENE 4.6 mph - N/A   Mostly Cloudy
7:53 AM 21.9 °F 17.2 °F 12.9 °F 68% 30.30 in 10.0 mi North 3.5 mph - N/A   Scattered Clouds
8:53 AM 23.0 °F - 14.0 °F 68% 30.28 in 10.0 mi Calm Calm - N/A   Overcast
9:53 AM 25.0 °F - 12.0 °F 58% 30.29 in 10.0 mi Calm Calm - N/A   Overcast
10:19 AM 24.8 °F 20.5 °F 15.8 °F 69% 30.24 in 4.0 mi Variable 3.5 mph - N/A   Haze
10:21 AM 24.8 °F 20.5 °F 14.0 °F 64% 30.25 in 1.8 mi SE 3.5 mph - 0.00 in Snow Light Snow
10:26 AM 24.8 °F 16.9 °F 15.8 °F 69% 30.24 in 0.8 mi SSE 6.9 mph - 0.00 in Snow Light Snow
10:39 AM 24.8 °F 19.1 °F 17.6 °F 74% 30.22 in 0.2 mi East 4.6 mph - 0.01 in Snow Heavy Snow
10:50 AM 24.8 °F 19.1 °F 19.4 °F 80% 30.23 in 0.2 mi East 4.6 mph - 0.03 in Fog , Snow Snow
10:53 AM 24.1 °F 18.2 °F 19.9 °F 84% 30.28 in 0.5 mi East 4.6 mph - 0.03 in Fog , Snow Snow
11:26 AM 24.8 °F 20.5 °F 19.4 °F 80% 30.22 in 0.2 mi East 3.5 mph - 0.03 in Fog , Snow Snow
11:53 AM 24.1 °F - 21.0 °F 88% 30.26 in 0.2 mi Calm Calm - 0.07 in Fog , Snow Snow
12:24 PM 24.8 °F 19.1 °F 21.2 °F 86% 30.17 in 0.5 mi ESE 4.6 mph - 0.03 in Fog , Snow Light Snow
12:34 PM 26.6 °F 21.2 °F 21.2 °F 80% 30.17 in 0.8 mi East 4.6 mph - 0.04 in Snow Light Snow
12:53 PM 26.1 °F 20.5 °F 21.0 °F 81% 30.20 in 0.8 mi ESE 4.6 mph - 0.04 in Snow Light Snow
1:53 PM 26.1 °F 19.4 °F 21.9 °F 84% 30.14 in 0.8 mi SE 5.8 mph - 0.04 in Snow Light Snow
2:19 PM 28.4 °F 21.2 °F 23.0 °F 80% 30.06 in 0.8 mi Variable 6.9 mph - 0.01 in Snow Light Snow
2:53 PM 28.0 °F 20.0 °F 24.1 °F 85% 30.09 in 0.8 mi SSE 8.1 mph - 0.01 in Snow Light Snow
2:55 PM 28.4 °F 19.7 °F 23.0 °F 80% 30.04 in 1.0 mi SSE 9.2 mph - 0.00 in Snow Light Snow
3:02 PM 28.4 °F 21.2 °F 24.8 °F 86% 30.05 in 0.5 mi SSE 6.9 mph - 0.01 in Fog , Snow Snow
3:15 PM 28.4 °F 22.2 °F 24.8 °F 86% 30.03 in 1.0 mi SE 5.8 mph - 0.02 in Snow Light Snow
3:33 PM 28.4 °F 23.3 °F 24.8 °F 86% 30.04 in 3.0 mi SE 4.6 mph - 0.02 in Snow Light Snow
3:51 PM 28.4 °F - 24.8 °F 86% 30.04 in 6.0 mi Calm Calm - 0.02 in Snow Light Snow
3:53 PM 28.9 °F - 25.0 °F 85% 30.09 in 6.0 mi Calm Calm - 0.02 in Snow Light Snow
4:04 PM 30.2 °F - 24.8 °F 80% 30.03 in 5.0 mi Calm Calm - 0.00 in Snow Light Snow
4:16 PM 28.4 °F - 24.8 °F 86% 30.04 in 2.0 mi Calm Calm - 0.00 in Snow Light Snow
4:37 PM 28.4 °F - 24.8 °F 86% 30.01 in 1.8 mi Calm Calm - 0.00 in Snow Light Snow
4:53 PM 30.0 °F - 27.0 °F 88% 30.07 in 1.8 mi Calm Calm - 0.00 in Snow Light Snow
5:20 PM 30.2 °F 23.4 °F 26.6 °F 86% 30.02 in 2.5 mi SSE 6.9 mph - 0.00 in   Overcast
5:30 PM 30.2 °F 24.3 °F 26.6 °F 86% 30.01 in 3.0 mi SE 5.8 mph - 0.00 in   Overcast
5:53 PM 30.9 °F 26.2 °F 28.0 °F 89% 30.04 in 4.0 mi ESE 4.6 mph - 0.00 in Snow Light Snow
6:51 PM 32.0 °F - 28.4 °F 87% 29.98 in 5.0 mi Calm Calm - 0.00 in Snow Light Snow
6:53 PM 32.0 °F - 28.0 °F 85% 30.03 in 5.0 mi Calm Calm - 0.00 in Snow Light Snow
7:20 PM 32.0 °F - 30.2 °F 93% 30.00 in 2.5 mi Calm Calm - 0.00 in Snow Light Snow
7:37 PM 32.0 °F - 30.2 °F 93% 29.99 in 1.8 mi Calm Calm - 0.01 in Snow Light Snow
7:53 PM 32.0 °F - 30.0 °F 92% 30.03 in 2.0 mi Calm Calm - 0.01 in Snow Light Snow
8:00 PM 33.8 °F - 30.2 °F 87% 29.98 in 1.8 mi Calm Calm - 0.00 in Snow Light Snow
8:09 PM 32.0 °F - 30.2 °F 93% 29.97 in 2.0 mi Calm Calm - 0.00 in Snow Light Snow
8:16 PM 32.0 °F - 28.4 °F 87% 29.96 in 1.0 mi Calm Calm - 0.00 in Snow Light Snow
8:53 PM 32.0 °F - 30.0 °F 92% 29.99 in 1.5 mi Calm Calm - 0.00 in Snow Light Snow
9:27 PM 32.0 °F - 30.2 °F 93% 29.95 in 0.8 mi Calm Calm - 0.00 in Snow Light Snow
9:39 PM 33.8 °F - 30.2 °F 87% 29.95 in 1.0 mi Calm Calm - 0.00 in Snow Light Snow
9:53 PM 32.0 °F - 30.0 °F 92% 29.98 in 1.0 mi Calm Calm - 0.00 in Snow Light Snow
10:00 PM 32.0 °F - 30.2 °F 93% 29.94 in 0.8 mi Calm Calm - 0.00 in Snow Light Snow
10:53 PM 33.1 °F - 30.9 °F 92% 29.97 in 1.5 mi Calm Calm - 0.00 in Snow Light Snow
11:00 PM 33.8 °F - 30.2 °F 87% 29.93 in 1.5 mi Calm Calm - 0.00 in   Overcast
11:09 PM 33.8 °F - 30.2 °F 87% 29.92 in 1.5 mi Calm Calm - 0.00 in   Overcast
11:21 PM 33.8 °F - 30.2 °F 87% 29.92 in 0.8 mi Calm Calm - 0.00 in   Overcast
11:27 PM 33.8 °F - 30.2 °F 87% 29.92 in 1.0 mi Calm Calm - 0.00 in   Overcast
11:37 PM 33.8 °F - 30.2 °F 87% 29.92 in 1.2 mi Calm Calm - 0.00 in   Overcast
11:53 PM 33.1 °F - 30.9 °F 92% 29.96 in 1.2 mi Calm Calm - 0.00 in   Overcast